Location: İstanbul
(41.0082°N, 28.9784°E)
Time: 00:39:22
(UTC+03:00)

ITUPSAT 1 - Visible Passes

Search period start: 25 April 2024 00:00
Search period end: 05 May 2024 00:00
Orbit: 695 x 707 km, 98.5° (Epoch: 24 April)

Date Brightness Start Highest point End Pass type
(mag) Time Alt. Az. Time Alt. Az. Time Alt. Az.
25 Apr ? 22:58:35 10° NNE 23:01:26 36° NNE 23:01:26 36° NNE visible
26 Apr ? 00:38:01 10° NNW 00:40:17 14° WNW 00:40:17 14° WNW visible
26 Apr ? 22:04:20 10° NE 22:05:27 14° ENE 22:05:27 14° ENE visible
26 Apr ? 23:40:59 10° N 23:44:18 37° NNW 23:44:18 37° NNW visible
27 Apr ? 22:45:32 10° NNE 22:48:19 32° NE 22:48:19 32° NE visible
28 Apr ? 00:24:12 10° NNW 00:27:10 18° WNW 00:27:10 18° WNW visible
28 Apr ? 21:52:01 10° ENE 21:52:19 11° ENE 21:52:19 11° ENE visible
28 Apr ? 23:27:42 10° N 23:31:11 46° NNW 23:31:11 46° NNW visible
29 Apr ? 22:32:33 10° NNE 22:35:11 27° ENE 22:35:11 27° ENE visible
30 Apr ? 00:10:36 10° NNW 00:14:02 24° WNW 00:14:02 24° WNW visible
30 Apr ? 23:14:28 10° NNE 23:18:02 51° N 23:18:02 51° N visible
01 May ? 22:19:40 10° NE 22:22:01 21° ENE 22:22:01 21° ENE visible
01 May ? 23:57:06 10° N 00:00:52 32° WNW 00:00:52 32° WNW visible
02 May ? 23:01:17 10° NNE 23:04:51 49° NE 23:04:51 49° NE visible
03 May ? 00:40:51 10° NNW 00:43:06 13° WNW 00:43:42 13° WNW visible
03 May ? 22:06:56 10° NE 22:08:49 17° ENE 22:08:49 17° ENE visible
03 May ? 23:43:41 10° N 23:47:40 42° NW 23:47:40 42° NW visible
04 May ? 22:48:09 10° NNE 22:51:38 41° ENE 22:51:38 41° ENE visible
